一网星座-0326星 (ONEWEB-0326 )

导读 | 星芒AI

ONEWEB-0326 是 OneWeb 卫星通信公司发射的第 26 颗卫星,属于其低轨卫星星座计划的一部分。该卫星旨在为全球提供高速互联网接入,特别是在偏远和网络覆盖不足的地区。它运行在约 1200 公里的低地球轨道,采用先进通信技术,支持高带宽和低延迟服务。ONEWEB-0326 的成功部署有助于 OneWeb 加快实现其全球宽带覆盖目标,并增强其在商业和政府市场的竞争力。

基本信息
目录编号:
49195
目录名称:
ONEWEB-0326
国际标识:
2021-083K
轨道中心:
EARTH
卫星名称:
一网星座-0326星
卫星全名:
一网星座-0326星 (ONEWEB-0326 )
卫星状态:
在轨 (已飞行1507 天)
发射日期:
2021-09-14 UTC
国别 :
英国 (GB)
星等 :
--
轨道信息
数据来源 国际轨道数据
星历时间: 2025-10-29T19:44:52+0800
17小时前
查看轨道信息
半长轴: 7567.882km
偏心率: 0.0001505
轨道倾角: 87.923°
近地点辐角 97.793°
升交点赤经 21.271°
平近点角 262.338°
近地点: 1188.608km
远地点: 1190.886km
周期: 109.200分钟
每日圈数: 13.186856
详细信息
平衡模式:
三轴稳定
覆盖范围:
全球
运营商:
一网卫星公司
运营商所在国:
英国
制造商(研发单位):
一网卫星公司
制造商所在国:
英国
使用方式:
暂无
卫星简介
OneWeb卫星网络由648颗重约125公斤的微型卫星组成,运行在1200公里的轨道上。 每颗卫星都能够提供至少每秒8千兆位的吞吐量,以使用其高吞吐量的Ku频段有效载荷为家庭和移动平台提供互联网接入。该卫星仍在工作。
2D轨道图
3D轨道图
轨道高度分析图
轨道倾角分析图
轨道综合分析图
查看轨道综合分析图